Location: Niles Junction
(37.5763°N, 121.9714°W)
Time: 03:45:39
(UTC+00:00)

Cosmos 2026 Rocket - Pass Details

Date: 29 October 2020
Orbit: 939 x 1002 km, 82.9° (Epoch: 23 November)

Event Time Altitude Azimuth Distance (km) Brightness Sun altitude
Rises 12:57:43 0° 187° (S) 3,701 7.0 -18.9°
Reaches altitude 10° 13:00:14 10° 188° (S) 2,759 6.3 -18.4°
Maximum altitude 13:06:36 82° 276° (W) 1,015 4.0 -17.1°
Drops below altitude 10° 13:13:00 10° 5° (N) 2,775 6.4 -15.9°
Sets 13:15:33 0° 6° (N) 3,724 7.1 -15.4°
